TimeAKST,TemperatureF,Dew PointF,Humidity,Sea Level PressureIn,VisibilityMPH,Wind Direction,Wind SpeedMPH,Gust SpeedMPH,PrecipitationIn,Events,Conditions,WindDirDegrees,DateUTC
12:16 AM,-27.4,-9999,N/A,30.49,10.0,Calm,Calm,-,N/A,,Unknown,0,2013-01-18 09:16:00
12:36 AM,-27.4,-9999,N/A,30.50,10.0,Calm,Calm,-,N/A,,Unknown,0,2013-01-18 09:36:00
12:56 AM,-27.4,-9999,N/A,30.50,10.0,Calm,Calm,-,N/A,,Unknown,0,2013-01-18 09:56:00
1:16 AM,-29.2,-9999,N/A,30.51,10.0,Calm,Calm,-,N/A,,Unknown,0,2013-01-18 10:16:00
1:36 AM,-29.2,-9999,N/A,30.51,10.0,Calm,Calm,-,N/A,,Unknown,0,2013-01-18 10:36:00
1:56 AM,-27.4,-9999,N/A,30.52,10.0,Calm,Calm,-,N/A,,Unknown,0,2013-01-18 10:56:00
2:16 AM,-29.2,-9999,N/A,30.53,10.0,Calm,Calm,-,N/A,,Unknown,0,2013-01-18 11:16:00
2:36 AM,-29.2,-9999,N/A,30.53,10.0,Calm,Calm,-,N/A,,Unknown,0,2013-01-18 11:36:00
2:56 AM,-29.2,-9999,N/A,30.54,10.0,Calm,Calm,-,N/A,,Unknown,0,2013-01-18 11:56:00
3:16 AM,-31.0,-9999,N/A,30.55,10.0,Calm,Calm,-,N/A,,Unknown,0,2013-01-18 12:16:00
3:36 AM,-31.0,-9999,N/A,30.55,10.0,Calm,Calm,-,N/A,,Unknown,0,2013-01-18 12:36:00
3:56 AM,-29.2,-9999,N/A,30.55,10.0,Calm,Calm,-,N/A,,Unknown,0,2013-01-18 12:56:00
4:16 AM,-32.8,-9999,N/A,30.56,10.0,Calm,Calm,-,N/A,,Unknown,0,2013-01-18 13:16:00
4:36 AM,-32.8,-9999,N/A,30.56,10.0,Calm,Calm,-,N/A,,Unknown,0,2013-01-18 13:36:00
4:56 AM,-32.8,-9999,N/A,30.57,10.0,Calm,Calm,-,N/A,,Unknown,0,2013-01-18 13:56:00
5:16 AM,-32.8,-9999,N/A,30.57,10.0,Calm,Calm,-,N/A,,Unknown,0,2013-01-18 14:16:00
5:36 AM,-32.8,-9999,N/A,30.57,10.0,Calm,Calm,-,N/A,,Unknown,0,2013-01-18 14:36:00
5:56 AM,-32.8,-9999,N/A,30.58,9.0,Calm,Calm,-,N/A,,Unknown,0,2013-01-18 14:56:00
6:16 AM,-31.0,-9999,N/A,30.58,10.0,Calm,Calm,-,N/A,,Unknown,0,2013-01-18 15:16:00
6:36 AM,-29.2,-9999,N/A,30.58,10.0,Calm,Calm,-,N/A,,Unknown,0,2013-01-18 15:36:00
6:56 AM,-32.8,-9999,N/A,30.58,10.0,Calm,Calm,-,N/A,,Unknown,0,2013-01-18 15:56:00
7:16 AM,-34.6,-9999,N/A,30.59,10.0,Calm,Calm,-,N/A,,Unknown,0,2013-01-18 16:16:00
7:36 AM,-32.8,-9999,N/A,30.59,10.0,SSE,3.5,-,N/A,,Unknown,160,2013-01-18 16:36:00
7:56 AM,-32.8,-9999,N/A,30.60,10.0,Calm,Calm,-,N/A,,Unknown,0,2013-01-18 16:56:00
8:16 AM,-32.8,-9999,N/A,30.60,10.0,Calm,Calm,-,N/A,,Unknown,0,2013-01-18 17:16:00
8:36 AM,-34.6,-9999,N/A,30.60,10.0,Calm,Calm,-,N/A,,Unknown,0,2013-01-18 17:36:00
8:56 AM,-34.6,-9999,N/A,30.60,10.0,South,3.5,-,N/A,,Unknown,170,2013-01-18 17:56:00
9:16 AM,-32.8,-9999,N/A,30.61,10.0,Calm,Calm,-,N/A,,Unknown,0,2013-01-18 18:16:00
9:36 AM,-32.8,-9999,N/A,30.61,10.0,Calm,Calm,-,N/A,,Unknown,0,2013-01-18 18:36:00
9:56 AM,-32.8,-9999,N/A,30.62,10.0,Calm,Calm,-,N/A,,Unknown,0,2013-01-18 18:56:00
10:16 AM,-32.8,-9999,N/A,30.62,10.0,Calm,Calm,-,N/A,,Unknown,0,2013-01-18 19:16:00
10:36 AM,-34.6,-9999,N/A,30.62,10.0,Calm,Calm,-,N/A,,Unknown,0,2013-01-18 19:36:00
10:56 AM,-34.6,-9999,N/A,30.62,10.0,Calm,Calm,-,N/A,,Unknown,0,2013-01-18 19:56:00
11:16 AM,-34.6,-9999,N/A,30.63,10.0,Calm,Calm,-,N/A,,Unknown,0,2013-01-18 20:16:00
11:36 AM,-34.6,-9999,N/A,30.63,10.0,Calm,Calm,-,N/A,,Unknown,0,2013-01-18 20:36:00
11:56 AM,-34.6,-9999,N/A,30.63,10.0,Calm,Calm,-,N/A,,Unknown,0,2013-01-18 20:56:00
12:16 PM,-32.8,-9999,N/A,30.64,10.0,Calm,Calm,-,N/A,,Unknown,0,2013-01-18 21:16:00
12:36 PM,-32.8,-9999,N/A,30.64,10.0,Calm,Calm,-,N/A,,Unknown,0,2013-01-18 21:36:00
12:56 PM,-32.8,-9999,N/A,30.65,10.0,Calm,Calm,-,N/A,,Unknown,0,2013-01-18 21:56:00
1:16 PM,-32.8,-9999,N/A,30.64,10.0,Calm,Calm,-,N/A,,Unknown,0,2013-01-18 22:16:00
1:36 PM,-32.8,-9999,N/A,30.64,10.0,South,4.6,-,N/A,,Unknown,170,2013-01-18 22:36:00
1:56 PM,-32.8,-9999,N/A,30.64,10.0,Calm,Calm,-,N/A,,Unknown,0,2013-01-18 22:56:00
2:16 PM,-32.8,-9999,N/A,30.64,10.0,Calm,Calm,-,N/A,,Unknown,0,2013-01-18 23:16:00
2:36 PM,-32.8,-9999,N/A,30.64,10.0,SSE,3.5,-,N/A,,Unknown,160,2013-01-18 23:36:00
2:56 PM,-32.8,-9999,N/A,30.64,10.0,SSE,4.6,-,N/A,,Unknown,160,2013-01-18 23:56:00
3:16 PM,-32.8,-9999,N/A,30.63,10.0,Calm,Calm,-,N/A,,Unknown,0,2013-01-19 00:16:00
3:36 PM,-32.8,-9999,N/A,30.63,10.0,Calm,Calm,-,N/A,,Unknown,0,2013-01-19 00:36:00
3:56 PM,-32.8,-9999,N/A,30.62,10.0,Calm,Calm,-,N/A,,Unknown,0,2013-01-19 00:56:00
4:16 PM,-32.8,-9999,N/A,30.62,10.0,Calm,Calm,-,N/A,,Unknown,0,2013-01-19 01:16:00
4:36 PM,-34.6,-9999,N/A,30.62,10.0,Calm,Calm,-,N/A,,Unknown,0,2013-01-19 01:36:00
4:56 PM,-34.6,-9999,N/A,30.62,10.0,Calm,Calm,-,N/A,,Unknown,0,2013-01-19 01:56:00
5:16 PM,-34.6,-9999,N/A,30.62,8.0,Calm,Calm,-,N/A,,Unknown,0,2013-01-19 02:16:00
5:36 PM,-34.6,-9999,N/A,30.62,10.0,Calm,Calm,-,N/A,,Unknown,0,2013-01-19 02:36:00
5:56 PM,-34.6,-9999,N/A,30.62,10.0,Calm,Calm,-,N/A,,Unknown,0,2013-01-19 02:56:00
6:16 PM,-34.6,-9999,N/A,30.62,10.0,Calm,Calm,-,N/A,,Unknown,0,2013-01-19 03:16:00
6:36 PM,-34.6,-9999,N/A,30.62,10.0,Calm,Calm,-,N/A,,Unknown,0,2013-01-19 03:36:00
6:56 PM,-34.6,-9999,N/A,30.61,10.0,Calm,Calm,-,N/A,,Unknown,0,2013-01-19 03:56:00
7:16 PM,-34.6,-9999,N/A,30.61,10.0,Calm,Calm,-,N/A,,Unknown,0,2013-01-19 04:16:00
7:36 PM,-34.6,-9999,N/A,30.61,10.0,Calm,Calm,-,N/A,,Unknown,0,2013-01-19 04:36:00
7:56 PM,-34.6,-9999,N/A,30.61,10.0,Calm,Calm,-,N/A,,Unknown,0,2013-01-19 04:56:00
8:16 PM,-34.6,-9999,N/A,30.60,10.0,Calm,Calm,-,N/A,,Unknown,0,2013-01-19 05:16:00
8:36 PM,-36.4,-9999,N/A,30.60,10.0,Calm,Calm,-,N/A,,Unknown,0,2013-01-19 05:36:00
8:56 PM,-36.4,-9999,N/A,30.59,10.0,Calm,Calm,-,N/A,,Unknown,0,2013-01-19 05:56:00
9:16 PM,-34.6,-9999,N/A,30.59,10.0,Calm,Calm,-,N/A,,Unknown,0,2013-01-19 06:16:00
9:36 PM,-36.4,-9999,N/A,30.59,10.0,Calm,Calm,-,N/A,,Unknown,0,2013-01-19 06:36:00
9:56 PM,-34.6,-9999,N/A,30.59,10.0,Calm,Calm,-,N/A,,Unknown,0,2013-01-19 06:56:00
10:16 PM,-34.6,-9999,N/A,30.58,10.0,Calm,Calm,-,N/A,,Unknown,0,2013-01-19 07:16:00
10:36 PM,-34.6,-9999,N/A,30.58,10.0,Calm,Calm,-,N/A,,Unknown,0,2013-01-19 07:36:00
10:56 PM,-36.4,-9999,N/A,30.57,10.0,Calm,Calm,-,N/A,,Unknown,0,2013-01-19 07:56:00
11:16 PM,-36.4,-9999,N/A,30.57,10.0,Calm,Calm,-,N/A,,Unknown,0,2013-01-19 08:16:00
11:36 PM,-36.4,-9999,N/A,30.56,10.0,South,4.6,-,N/A,,Unknown,180,2013-01-19 08:36:00
11:56 PM,-36.4,-9999,N/A,30.56,10.0,SSE,5.8,-,N/A,,Unknown,160,2013-01-19 08:56:00